OK1HOL-13 Weather Reports


time (UTC)temp
F
wind
direction
speed
knots
gust
knots
rain 1hr
in
rain 24hr
in
rain mn
in
humidity
%
barometer
mb
20260502130550 82 0.0 0.0 0.00 0.00 0.00 16 1021.0
20260502123551 80 0.0 0.0 0.00 0.00 0.00 17 1021.4
20260502122551 79 0.0 0.0 0.00 0.00 0.00 17 1021.4
20260502121551 79 0.0 0.0 0.00 0.00 0.00 19 1021.6
20260502120550 81 0.0 0.0 0.00 0.00 0.00 18 1021.7
20260502115550 79 0.0 0.0 0.00 0.00 0.00 20 1021.9
20260502114550 78 0.0 0.0 0.00 0.00 0.00 20 1022.1
20260502113551 80 0.0 0.0 0.00 0.00 0.00 20 1022.2
20260502112551 79 0.0 0.0 0.00 0.00 0.00 20 1022.3
20260502111551 78 0.0 0.0 0.00 0.00 0.00 22 1022.5
20260502110550 78 0.0 0.0 0.00 0.00 0.00 22 1022.6
20260502105550 78 0.0 0.0 0.00 0.00 0.00 22 1022.7
20260502104551 77 0.0 0.0 0.00 0.00 0.00 23 1022.9
20260502103550 80 0.0 0.0 0.00 0.00 0.00 21 1023.0
20260502102551 78 0.0 0.0 0.00 0.00 0.00 22 1023.3
20260502101551 77 0.0 0.0 0.00 0.00 0.00 23 1023.4
20260502100550 77 0.0 0.0 0.00 0.00 0.00 22 1023.4
20260502090550 73 0.0 0.0 0.00 0.00 0.00 26 1024.2
20260502070550 62 0.0 0.0 0.00 0.00 0.00 40 1025.4
20260502065550 59 0.0 0.0 0.00 0.00 0.00 44 1025.5
20260502064551 58 0.0 0.0 0.00 0.00 0.00 46 1025.6
20260502063551 56 0.0 0.0 0.00 0.00 0.00 49 1025.6
20260502062551 55 0.0 0.0 0.00 0.00 0.00 51 1025.6
20260502061550 55 0.0 0.0 0.00 0.00 0.00 51 1025.7
20260502060551 52 0.0 0.0 0.00 0.00 0.00 55 1025.8
20260502055550 51 0.0 0.0 0.00 0.00 0.00 58 1025.8
20260502053551 49 0.0 0.0 0.00 0.00 0.00 61 1025.7
20260502052550 48 0.0 0.0 0.00 0.00 0.00 62 1025.8
20260502051552 48 0.0 0.0 0.00 0.00 0.00 62 1025.7
20260502050551 48 0.0 0.0 0.00 0.00 0.00 64 1025.6
20260502045551 48 0.0 0.0 0.00 0.00 0.00 66 1025.6
20260502044550 47 0.0 0.0 0.00 0.00 0.00 67 1025.6
20260502043551 47 0.0 0.0 0.00 0.00 0.00 67 1025.5
20260502042550 47 0.0 0.0 0.00 0.00 0.00 68 1025.6
20260502041551 47 0.0 0.0 0.00 0.00 0.00 68 1025.5
20260502040551 47 0.0 0.0 0.00 0.00 0.00 68 1025.6
20260502035550 47 0.0 0.0 0.00 0.00 0.00 68 1025.5
20260502034550 47 0.0 0.0 0.00 0.00 0.00 67 1025.6
20260502033550 47 0.0 0.0 0.00 0.00 0.00 67 1025.5
20260502031551 48 0.0 0.0 0.00 0.00 0.00 66 1025.5
20260502030550 48 0.0 0.0 0.00 0.00 0.00 64 1025.6
20260502025551 49 0.0 0.0 0.00 0.00 0.00 63 1025.6
20260502024551 49 0.0 0.0 0.00 0.00 0.00 65 1025.6
20260502023550 49 0.0 0.0 0.00 0.00 0.00 65 1025.5
20260502022551 49 0.0 0.0 0.00 0.00 0.00 66 1025.6
20260502021550 49 0.0 0.0 0.00 0.00 0.00 66 1025.6
20260502020550 49 0.0 0.0 0.00 0.00 0.00 66 1025.6
20260502015551 49 0.0 0.0 0.00 0.00 0.00 70 1025.6
20260502014550 49 0.0 0.0 0.00 0.00 0.00 70 1025.7
20260502013550 50 0.0 0.0 0.00 0.00 0.00 62 1025.7
20260502012551 51 0.0 0.0 0.00 0.00 0.00 62 1025.7
20260502011600 51 0.0 0.0 0.00 0.00 0.00 64 1025.8
20260502011127 51 0.0 0.0 0.00 0.00 0.00 61 1025.8
20260502010127 51 0.0 0.0 0.00 0.00 0.00 61 1025.9
20260502005127 51 0.0 0.0 0.00 0.00 0.00 61 1025.9
20260502004127 51 0.0 0.0 0.00 0.00 0.00 62 1025.9
20260502003127 52 0.0 0.0 0.00 0.00 0.00 60 1025.9
20260502002127 52 0.0 0.0 0.00 0.00 0.00 59 1025.9
20260502001127 52 0.0 0.0 0.00 0.00 0.00 58 1026.0
20260502000127 53 0.0 0.0 0.00 0.00 0.00 59 1026.0
20260501235127 53 0.0 0.0 0.00 0.00 0.00 59 1026.0
20260501234127 53 0.0 0.0 0.00 0.00 0.00 63 1026.1
20260501233127 53 0.0 0.0 0.00 0.00 0.00 57 1026.1
20260501232127 53 0.0 0.0 0.00 0.00 0.00 57 1026.1
20260501231127 54 0.0 0.0 0.00 0.00 0.00 60 1026.1
20260501230127 54 0.0 0.0 0.00 0.00 0.00 56 1026.0
20260501225127 54 0.0 0.0 0.00 0.00 0.00 57 1026.1
20260501224127 55 0.0 0.0 0.00 0.00 0.00 55 1026.1
20260501223127 55 0.0 0.0 0.00 0.00 0.00 53 1026.1
20260501222127 56 0.0 0.0 0.00 0.00 0.00 53 1026.0
20260501221127 56 0.0 0.0 0.00 0.00 0.00 55 1026.0
20260501220127 56 0.0 0.0 0.00 0.00 0.00 54 1026.0
20260501215127 57 0.0 0.0 0.00 0.00 0.00 52 1026.0
20260501214127 57 0.0 0.0 0.00 0.00 0.00 48 1025.9
20260501213128 57 0.0 0.0 0.00 0.00 0.00 50 1025.9
20260501212127 58 0.0 0.0 0.00 0.00 0.00 51 1025.8
20260501211127 59 0.0 0.0 0.00 0.00 0.00 48 1025.9
20260501210127 59 0.0 0.0 0.00 0.00 0.00 46 1025.9
20260501205127 60 0.0 0.0 0.00 0.00 0.00 45 1025.9
20260501204127 60 0.0 0.0 0.00 0.00 0.00 45 1025.8
20260501203127 61 0.0 0.0 0.00 0.00 0.00 43 1025.8
20260501202127 61 0.0 0.0 0.00 0.00 0.00 43 1025.8
20260501201127 61 0.0 0.0 0.00 0.00 0.00 43 1025.7
20260501200127 61 0.0 0.0 0.00 0.00 0.00 43 1025.7
20260501195127 63 0.0 0.0 0.00 0.00 0.00 36 1025.6
20260501194127 64 0.0 0.0 0.00 0.00 0.00 36 1025.6
20260501193127 65 0.0 0.0 0.00 0.00 0.00 34 1025.6
20260501192127 65 0.0 0.0 0.00 0.00 0.00 34 1025.6
20260501191127 66 0.0 0.0 0.00 0.00 0.00 33 1025.6
20260501190127 66 0.0 0.0 0.00 0.00 0.00 32 1025.5
20260501185127 67 0.0 0.0 0.00 0.00 0.00 31 1025.5
20260501184127 67 0.0 0.0 0.00 0.00 0.00 30 1025.3
20260501183127 68 0.0 0.0 0.00 0.00 0.00 29 1025.3
20260501182127 68 0.0 0.0 0.00 0.00 0.00 28 1025.3
20260501181127 69 0.0 0.0 0.00 0.00 0.00 28 1025.2
20260501180127 69 0.0 0.0 0.00 0.00 0.00 27 1025.1
20260501175127 70 0.0 0.0 0.00 0.00 0.00 28 1025.1
20260501174127 70 0.0 0.0 0.00 0.00 0.00 28 1025.0
20260501173127 70 0.0 0.0 0.00 0.00 0.00 28 1025.0
20260501172127 71 0.0 0.0 0.00 0.00 0.00 28 1024.9
20260501171127 71 0.0 0.0 0.00 0.00 0.00 28 1024.9
20260501170127 71 0.0 0.0 0.00 0.00 0.00 28 1025.0
20260501165127 71 0.0 0.0 0.00 0.00 0.00 27 1025.0
20260501164127 72 0.0 0.0 0.00 0.00 0.00 27 1025.1
20260501163127 73 0.0 0.0 0.00 0.00 0.00 26 1025.2
20260501162127 74 0.0 0.0 0.00 0.00 0.00 25 1025.2
20260501161127 74 0.0 0.0 0.00 0.00 0.00 25 1025.3
20260501160127 75 0.0 0.0 0.00 0.00 0.00 24 1025.4
20260501155127 74 0.0 0.0 0.00 0.00 0.00 25 1025.4
20260501154127 75 0.0 0.0 0.00 0.00 0.00 24 1025.5
20260501153127 77 0.0 0.0 0.00 0.00 0.00 23 1025.6
20260501152127 76 0.0 0.0 0.00 0.00 0.00 23 1025.7
20260501151130 77 0.0 0.0 0.00 0.00 0.00 23 1025.8